{"data":{"norad_id":65909,"epoch":"2026-05-25T01:36:50.514048Z","epoch_age_seconds":63027,"freshness":"FRESH","line1":"1 65909U 25224AD  26145.06725132  .00023801  00000+0  81291-3 0  9995","line2":"2 65909  53.1586  16.8864 0000981  76.8065 283.3045 15.30209031 36516","mean_motion":15.30209031,"eccentricity":9.81e-5,"inclination_deg":53.1586,"raan_deg":16.8864,"arg_perigee_deg":76.8065,"mean_anomaly_deg":283.3045,"bstar":0.00081291,"rev_number":3651,"period_min":94.104790314755,"perigee_km":474.51579342103,"apogee_km":475.86041580655,"semimajor_km":6853.3251046138,"source":"CELESTRAK","updated_at":"2026-05-25T13:38:20.985350Z"}}